Voltar ao catálogo

HIMAWARI 9

AtivoMeteoGEO
NORAD 41836·PAYLOAD·🇯🇵 Japan

Lançado Nov 2, 2016 de Tanegashima Space Center

Loading…

TLE

AtualizadoSource: Space-Track

Época: Sep 14, 2026, 12:45 UTC

1 41836U 16064A   26257.53171539 -.00000283  00000-0  00000-0 0  9999
2 41836   0.0208 261.8221 0001085 283.8658 139.9913  1.00270900 36104

Acompanhe HIMAWARI 9 em tempo real com AllMySat

Download on the App Store